Joensuu, Finland

5:38 PM EET on February 20, 2017 (GMT +0200)
Joensuu

Weather History for EFJO - September, 2013

Change the Weather History Date:

Saturday, September 7, 2013

  Actual Average Record
Temperature  
Mean Temperature 57 °F -  
Max Temperature 68 °F - - ()
Min Temperature 46 °F - - ()
Degree Days  
Heating Degree Days 8    
Growing Degree Days 7 (Base 50)    
Moisture  
Dew Point 51 °F    
Average Humidity 79    
Maximum Humidity 100    
Minimum Humidity 56    
Precipitation  
Precipitation 0.00 in 0.08 in - ()
Sea Level Pressure  
Sea Level Pressure 30.19 in    
Wind  
Wind Speed 3 mph ()    
Max Wind Speed 10 mph    
Max Gust Speed -    
Visibility 5.5 miles    
Events Fog    
T = Trace of Precipitation, MM = Missing Value Source: Averaged Metar Reports

Daily Weather History Graph

Daily Weather History Graph

Search for Another Location

Airport or City:

Trip Planner

Search our weather history database for the weather conditions in past years. The results will help you decide how hot, cold, wet, or windy it might be!

Date:

Astronomy

Sep. 07, 2013 Rise Set
Actual Time 6:04 AM EEST 7:52 PM EEST
Civil Twilight 5:16 AM EEST 8:40 PM EEST
Nautical Twilight 4:14 AM EEST 9:41 PM EEST
Astronomical Twilight 2:51 AM EEST 11:02 PM EEST
Moon 8:51 AM EEST (9/7) 7:38 PM EEST (9/7)
Length of Visible Light 15h 23m
Length of Day
13h 47m
Waxing Crescent, 4% of the Moon is Illuminated
Sep 7
Waxing Crescent
Sep 12
First Quarter
Sep 19
Full
Sep 27
Last Quarter
Oct 5
New

Hourly Weather History & Observations

Time (EEST) Temp. Dew Point Humidity Pressure Visibility Wind Dir Wind Speed Gust Speed Precip Events Conditions
12:20 AM 46.4 °F 46.4 °F 100% 30.24 in 0.3 mi SSW 1.2 mph - N/A Fog Fog
12:50 AM 46.4 °F 46.4 °F 100% 30.24 in - Calm Calm - N/A   Clear
1:20 AM 46.4 °F 46.4 °F 100% 30.24 in - East 1.2 mph - N/A   Clear
1:50 AM 46.4 °F 44.6 °F 93% 30.21 in 1.5 mi Calm Calm - N/A   Clear
2:20 AM 46.4 °F 44.6 °F 93% 30.24 in 1.8 mi Calm Calm - N/A   Partly Cloudy
2:50 AM 46.4 °F 46.4 °F 100% 30.21 in 6.2 mi Calm Calm - N/A   Mostly Cloudy
3:20 AM 46.4 °F 44.6 °F 93% 30.21 in 6.2 mi Calm Calm - N/A   Partly Cloudy
3:50 AM 46.4 °F 44.6 °F 93% 30.21 in 6.2 mi Calm Calm - N/A   Mostly Cloudy
4:20 AM 46.4 °F 44.6 °F 93% 30.21 in 6.2 mi Calm Calm - N/A   Scattered Clouds
4:50 AM 46.4 °F 44.6 °F 93% 30.21 in 6.2 mi Calm Calm - N/A   Mostly Cloudy
5:20 AM 46.4 °F 46.4 °F 100% 30.21 in 6.2 mi Calm Calm - N/A   Mostly Cloudy
5:50 AM 46.4 °F 46.4 °F 100% 30.21 in 6.2 mi Calm Calm - N/A   Scattered Clouds
6:20 AM 48.2 °F 46.4 °F 93% 30.21 in 6.2 mi South 1.2 mph - N/A   Scattered Clouds
6:50 AM 48.2 °F 46.4 °F 93% 30.21 in 6.2 mi South 1.2 mph - N/A   Scattered Clouds
7:20 AM 48.2 °F 46.4 °F 93% 30.21 in - South 1.2 mph - N/A   Clear
7:50 AM 53.6 °F 50.0 °F 88% 30.21 in - South 3.5 mph - N/A   Clear
8:20 AM 55.4 °F 50.0 °F 82% 30.21 in - South 3.5 mph - N/A   Clear
8:50 AM 57.2 °F 51.8 °F 82% 30.21 in - South 3.5 mph - N/A   Clear
9:20 AM 59.0 °F 51.8 °F 77% 30.21 in - South 2.3 mph - N/A   Clear
9:50 AM 60.8 °F 53.6 °F 77% 30.21 in - SSW 5.8 mph - N/A   Clear
10:20 AM 62.6 °F 53.6 °F 72% 30.18 in - SSW 5.8 mph - N/A   Clear
10:50 AM 62.6 °F 53.6 °F 72% 30.18 in - SW 8.1 mph - N/A   Clear
11:20 AM 62.6 °F 51.8 °F 68% 30.18 in - SW 8.1 mph - N/A   Clear
11:50 AM 62.6 °F 50.0 °F 63% 30.18 in - WSW 8.1 mph - N/A   Clear
12:20 PM 64.4 °F 50.0 °F 59% 30.18 in - SW 9.2 mph - N/A   Clear
12:50 PM 64.4 °F 50.0 °F 59% 30.18 in - SW 8.1 mph - N/A   Clear
1:20 PM 64.4 °F 50.0 °F 59% 30.18 in - SW 8.1 mph - N/A   Clear
1:50 PM 66.2 °F 51.8 °F 60% 30.18 in - SSW 8.1 mph - N/A   Clear
2:20 PM 68.0 °F 51.8 °F 56% 30.18 in 6.2 mi SW 8.1 mph - N/A   Partly Cloudy
2:50 PM 66.2 °F 51.8 °F 60% 30.15 in 6.2 mi West 8.1 mph - N/A   Partly Cloudy
3:20 PM 68.0 °F 51.8 °F 56% 30.15 in 6.2 mi West 9.2 mph - N/A   Scattered Clouds
3:50 PM 68.0 °F 53.6 °F 60% 30.15 in 6.2 mi West 8.1 mph - N/A   Partly Cloudy
4:20 PM 68.0 °F 53.6 °F 60% 30.15 in - West 10.4 mph - N/A   Clear
4:50 PM 68.0 °F 53.6 °F 60% 30.15 in 6.2 mi West 8.1 mph - N/A   Partly Cloudy
5:20 PM 68.0 °F 53.6 °F 60% 30.15 in 6.2 mi West 8.1 mph - N/A   Partly Cloudy
5:50 PM 68.0 °F 53.6 °F 60% 30.15 in 6.2 mi West 8.1 mph - N/A   Partly Cloudy
6:20 PM 66.2 °F 55.4 °F 68% 30.15 in - West 6.9 mph - N/A   Clear
6:50 PM 66.2 °F 53.6 °F 64% 30.15 in - West 6.9 mph - N/A   Clear
7:20 PM 64.4 °F 55.4 °F 73% 30.15 in - West 4.6 mph - N/A   Clear
7:50 PM 62.6 °F 53.6 °F 72% 30.15 in - West 4.6 mph - N/A   Clear
8:20 PM 60.8 °F 53.6 °F 77% 30.18 in - West 4.6 mph - N/A   Clear
8:50 PM 59.0 °F 55.4 °F 88% 30.18 in - West 4.6 mph - N/A   Clear
9:20 PM 59.0 °F 55.4 °F 88% 30.18 in - West 4.6 mph - N/A   Clear
9:50 PM 59.0 °F 55.4 °F 88% 30.18 in - West 4.6 mph - N/A   Clear
10:20 PM 59.0 °F 55.4 °F 88% 30.18 in 6.2 mi West 5.8 mph - N/A   Partly Cloudy
10:50 PM 59.0 °F 55.4 °F 88% 30.18 in 6.2 mi West 4.6 mph - N/A   Mostly Cloudy
11:20 PM 59.0 °F 55.4 °F 88% 30.18 in - West 4.6 mph - N/A   Clear
11:50 PM 59.0 °F 55.4 °F 88% 30.18 in 6.2 mi West 4.6 mph - N/A   Mostly Cloudy